[[{"header":{"parameterUnit":"m.s-1","parameterCategory":1,"la1":30.2991,"la2":30.254,"lo1":-89.0895,"lo2":-89.0444,"dy":0.0017,"dx":0.0017,"nx":28,"ny":28,"refTime":"2025-03-17T09:00:00:Z","depth":0,"parameterNumber":2,"parameterNumberName":"U-component_of_WINDS"},"data":[0,0,0,0,0,0,0,0,0,0,0,0,0,0,0,0,0,0,0,0,0,0,0,0,0,0,0,0,0,0,0,0,0,0,0,0,0,0,0,0,0,0,0,0,0,0,0,0,0,0,0,0,0,0,0,0,0,0,-1.0598,-1.0599,0,-1.0637,-1.0638,-1.0638,-1.0656,-1.0656,-1.0656,-1.0656,-1.0698,-1.0699,-1.07,0,0,0,0,0,0,0,0,0,0,0,0,0,-1.0542,-1.0543,-1.0598,-1.0599,-1.0599,-1.0637,-1.0638,-1.0638,-1.0657,-1.0656,-1.0656,-1.0656,-1.0698,-1.0699,-1.07,0,0,0,0,0,0,0,0,0,0,0,0,0,-1.0572,-1.0543,-1.0598,-1.0613,-1.0615,-1.0637,-1.0638,-1.0638,-1.0657,-1.0656,-1.0656,-1.0656,-1.0697,-1.0699,-1.0701,-1.0712,0,0,-1.0706,-1.0707,0,0,0,0,0,0,0,0,-1.0571,-1.0574,-1.061,-1.0612,-1.0614,-1.0642,-1.0633,-1.0663,-1.0657,-1.0641,-1.0656,-1.0656,-1.068,-1.0683,-1.069,-1.0714,-1.0716,-1.0706,-1.0707,-1.0708,-1.0708,0,0,0,0,0,0,0,-1.0568,-1.0573,-1.0614,-1.0611,-1.0613,-1.0618,-1.0623,-1.0639,-1.066,-1.0642,-1.0643,-1.0648,-1.0681,-1.0688,-1.0691,-1.0716,-1.0706,-1.0707,-1.0708,-1.0709,-1.0753,-1.0753,0,0,0,0,0,0,-1.0564,-1.0571,-1.0613,-1.0615,-1.0592,-1.0619,-1.0624,-1.0633,-1.066,-1.0664,-1.0648,-1.0648,-1.0686,-1.0689,-1.0693,-1.0709,-1.0708,-1.0709,-1.071,-1.0752,-1.0753,-1.0753,0,0,0,0,0,0,-1.0562,-1.0567,-1.0611,-1.0593,-1.0599,-1.062,-1.063,-1.0634,-1.0642,-1.0664,-1.0668,-1.0652,-1.0686,-1.069,-1.0707,-1.071,-1.071,-1.0712,-1.0752,-1.0753,-1.0753,-1.074,0,0,0,0,0,0,-1.0561,-1.0567,-1.0571,-1.0593,-1.06,-1.0624,-1.063,-1.0635,-1.0644,-1.0646,-1.0669,-1.0673,-1.0686,-1.0705,-1.0709,-1.0713,-1.0713,-1.0752,-1.0752,-1.0753,-1.074,-1.0739,-1.0739,0,0,0,0,0,-1.0559,-1.0566,-1.0571,-1.0576,-1.0605,-1.0624,-1.0628,-1.0643,-1.0645,-1.0649,-1.0664,-1.0672,-1.0709,-1.0706,-1.0711,-1.0715,-1.0752,-1.0752,-1.0753,-1.074,-1.0739,-1.0739,0,0,0,0,0,0,-1.0543,-1.0569,-1.0575,-1.0589,-1.0604,-1.0627,-1.0633,-1.0641,-1.0657,-1.0657,-1.0675,-1.0681,-1.0696,-1.0707,-1.0704,-1.0728,-1.0731,-1.0733,-1.072,-1.072,-1.0719,-1.0716,-1.0714,0,0,0,0,0,-1.0541,-1.0553,-1.0576,-1.0586,-1.0593,-1.0612,-1.0621,-1.0631,-1.0647,-1.0654,-1.067,-1.0686,-1.0702,-1.0711,-1.0727,-1.0742,-1.0747,-1.0747,-1.0747,-1.0746,-1.0747,-1.0757,-1.0757,-1.0754,-1.0754,-1.0754,0,0,-1.0538,-1.0553,-1.056,-1.0583,-1.0596,-1.0609,-1.0617,-1.0631,-1.0641,-1.0656,-1.0673,-1.0685,-1.0705,-1.0721,-1.0729,-1.0731,-1.0749,-1.0747,-1.0746,-1.0747,-1.0757,-1.0757,-1.0758,-1.0754,-1.0754,-1.0754,0,0,-1.0538,-1.0551,-1.0561,-1.0574,-1.0593,-1.0606,-1.0608,-1.063,-1.0639,-1.0656,-1.0668,-1.068,-1.0706,-1.072,-1.073,-1.0737,-1.0745,-1.0741,-1.0739,-1.0748,-1.0748,-1.0748,-1.0751,-1.0752,-1.0742,-1.0742,-1.0742,0,-1.0531,-1.0551,-1.0566,-1.0578,-1.0589,-1.0603,-1.0614,-1.0626,-1.065,-1.0657,-1.0659,-1.0692,-1.0706,-1.0726,-1.0728,-1.0736,-1.074,-1.0739,-1.0747,-1.0747,-1.0748,-1.0751,-1.0752,-1.0742,-1.0742,-1.0742,-1.0742,0,-1.0542,-1.0555,-1.0562,-1.0583,-1.0595,-1.0607,-1.0624,-1.0634,-1.0643,-1.0655,-1.0673,-1.0691,-1.071,-1.0716,-1.0725,-1.0737,-1.0738,-1.0743,-1.0747,-1.0747,-1.075,-1.0751,-1.0741,-1.0741,-1.0741,-1.0741,0,0,-1.0533,-1.0563,-1.0565,-1.0576,-1.0599,-1.061,-1.0623,-1.0641,-1.0649,-1.0666,-1.0678,-1.07,-1.0705,-1.0716,-1.0727,-1.0735,-1.074,-1.074,-1.0741,-1.074,-1.0755,-1.0751,-1.0752,-1.0746,-1.0746,-1.0746,-1.0754,0,-1.0537,-1.056,-1.0574,-1.0592,-1.0605,-1.0619,-1.0631,-1.0646,-1.0658,-1.0672,-1.0686,-1.0701,-1.0707,-1.0714,-1.0722,-1.0738,-1.0743,-1.0737,-1.0758,-1.0758,-1.0753,-1.0754,-1.075,-1.0756,-1.0755,-1.0755,-1.0755,0,-1.0544,-1.0559,-1.0578,-1.06,-1.0606,-1.0616,-1.0634,-1.0647,-1.0665,-1.0674,-1.0687,-1.0698,-1.0714,-1.0716,-1.0738,-1.0733,-1.0743,-1.0752,-1.0752,-1.0755,-1.0757,-1.0757,-1.0758,-1.0759,-1.0757,-1.0757,-1.0757,0,-1.0536,-1.0562,-1.0576,-1.0585,-1.061,-1.0617,-1.0628,-1.0647,-1.0657,-1.0674,-1.0681,-1.0699,-1.0709,-1.0724,-1.074,-1.074,-1.0761,-1.0764,-1.0769,-1.0768,-1.0772,-1.0772,-1.0775,-1.0778,-1.0778,-1.0778,-1.0778,0,-1.0539,-1.055,-1.0573,-1.0582,-1.0595,-1.0612,-1.0625,-1.0637,-1.0654,-1.0666,-1.068,-1.0691,-1.0712,-1.0726,-1.0739,-1.0756,-1.076,-1.0768,-1.0772,-1.0767,-1.0766,-1.0774,-1.0774,-1.0778,-1.0778,-1.0778,-1.0778,0,-1.0532,-1.0548,-1.0565,-1.0588,-1.0594,-1.0603,-1.0623,-1.0633,-1.0646,-1.0662,-1.0666,-1.0687,-1.0705,-1.0723,-1.0747,-1.0755,-1.0772,-1.0776,-1.0765,-1.0767,-1.0771,-1.077,-1.078,-1.0782,-1.0782,-1.0782,-1.0782,0,-1.0533,-1.0542,-1.0566,-1.0575,-1.0585,-1.06,-1.061,-1.0627,-1.0638,-1.066,-1.0668,-1.0686,-1.0702,-1.073,-1.0748,-1.0767,-1.0772,-1.0774,-1.0775,-1.077,-1.0772,-1.0772,-1.0773,-1.0773,-1.0773,-1.0773,-1.0773,0,-1.0533,-1.054,-1.0555,-1.0572,-1.0585,-1.0599,-1.0615,-1.0622,-1.0642,-1.0654,-1.0672,-1.0684,-1.0708,-1.0727,-1.0748,-1.076,-1.077,-1.0772,-1.0775,-1.077,-1.0764,-1.0768,-1.0764,-1.0772,-1.0772,-1.0772,-1.0772,-1.0772,-1.053,-1.0539,-1.0557,-1.0573,-1.0586,-1.0601,-1.0611,-1.0625,-1.064,-1.0661,-1.0671,-1.0689,-1.0708,-1.0737,-1.075,-1.0765,-1.0768,-1.077,-1.0771,-1.0772,-1.0771,-1.0761,-1.0769,-1.0769,-1.0769,-1.0769,-1.0769,0,-1.0531,-1.0543,-1.0558,-1.0579,-1.0592,-1.0599,-1.0617,-1.0627,-1.0643,-1.066,-1.0675,-1.0696,-1.0715,-1.0734,-1.0754,-1.0762,-1.0767,-1.0767,-1.0767,-1.0769,-1.0767,-1.0764,-1.0762,-1.0762,-1.0762,-1.0762,-1.0762,-1.0762,-1.0533,-1.0548,-1.0558,-1.058,-1.0593,-1.0611,-1.062,-1.0634,-1.0647,-1.067,-1.0685,-1.0697,-1.0715,-1.0737,-1.0754,-1.076,-1.0766,-1.0765,-1.0771,-1.0769,-1.077,-1.077,-1.0767,-1.0766,-1.0766,-1.0772,-1.0772,-1.0772]},{"header":{"parameterUnit":"m.s-1","parameterCategory":1,"la1":30.2991,"la2":30.254,"lo1":-89.0895,"lo2":-89.0444,"dy":0.0017,"dx":0.0017,"nx":28,"ny":28,"refTime":"2025-03-17T09:00:00:Z","depth":0,"parameterNumber":3,"parameterNumberName":"V-component_of_WINDS"},"data":[0,0,0,0,0,0,0,0,0,0,0,0,0,0,0,0,0,0,0,0,0,0,0,0,0,0,0,0,0,0,0,0,0,0,0,0,0,0,0,0,0,0,0,0,0,0,0,0,0,0,0,0,0,0,0,0,0,0,7.0945,7.0945,0,7.1024,7.1025,7.1026,7.0961,7.0958,7.0956,7.0953,7.1028,7.1033,7.1037,0,0,0,0,0,0,0,0,0,0,0,0,0,7.0728,7.0733,7.0944,7.0946,7.0947,7.1024,7.1025,7.1026,7.0962,7.0958,7.0955,7.0952,7.1027,7.1032,7.1038,0,0,0,0,0,0,0,0,0,0,0,0,0,7.0817,7.0734,7.0944,7.0924,7.0923,7.1024,7.1025,7.1027,7.0962,7.0958,7.0954,7.095,7.1025,7.1032,7.1038,7.1162,0,0,7.1059,7.1062,0,0,0,0,0,0,0,0,7.0812,7.0825,7.0926,7.0925,7.0924,7.0979,7.0977,7.1072,7.0963,7.0947,7.0953,7.0948,7.1015,7.1022,7.1046,7.1166,7.1169,7.106,7.1064,7.1067,7.1069,0,0,0,0,0,0,0,7.0806,7.0821,7.0976,7.0927,7.0926,7.0908,7.0916,7.0994,7.1003,7.0948,7.0944,7.0954,7.1013,7.104,7.1047,7.117,7.106,7.1066,7.107,7.1073,7.1393,7.1397,0,0,0,0,0,0,7.0803,7.0816,7.0973,7.0978,7.0857,7.0915,7.0924,7.0965,7.1002,7.1003,7.0958,7.0951,7.103,7.1039,7.105,7.1195,7.1067,7.1073,7.1077,7.1388,7.1394,7.1398,0,0,0,0,0,0,7.0798,7.0817,7.097,7.0896,7.0914,7.0923,7.097,7.0969,7.0995,7.1009,7.1009,7.0983,7.1027,7.104,7.1135,7.1197,7.1076,7.1083,7.1383,7.139,7.1396,7.1488,0,0,0,0,0,0,7.0792,7.0816,7.0865,7.0898,7.0918,7.1056,7.0974,7.0974,7.1008,7.1,7.1033,7.1035,7.1025,7.1125,7.1141,7.1204,7.1088,7.1378,7.1386,7.1394,7.1479,7.1497,7.1512,0,0,0,0,0,7.0785,7.0887,7.0868,7.0887,7.098,7.106,7.1071,7.106,7.1013,7.1061,7.1069,7.1033,7.1188,7.1135,7.1153,7.1219,7.1374,7.1384,7.1393,7.1472,7.1493,7.1511,0,0,0,0,0,0,7.0859,7.0891,7.087,7.0986,7.1021,7.1049,7.1109,7.1083,7.1131,7.1121,7.1103,7.1111,7.121,7.1224,7.1165,7.1339,7.1273,7.1287,7.1326,7.1347,7.1362,7.1356,7.1094,0,0,0,0,0,7.089,7.0954,7.0977,7.1078,7.1096,7.11,7.1134,7.1123,7.1157,7.1171,7.1186,7.1219,7.1275,7.1312,7.1364,7.1481,7.1486,7.1535,7.1551,7.1565,7.1576,7.1637,7.1658,7.1431,7.1431,7.1431,0,0,7.0952,7.0977,7.1019,7.1093,7.1119,7.1183,7.1113,7.1184,7.1231,7.1181,7.1271,7.1284,7.1319,7.1425,7.1473,7.144,7.164,7.1577,7.1588,7.1592,7.1649,7.167,7.1689,7.1438,7.1437,7.1436,0,0,7.1099,7.1126,7.1211,7.1238,7.1279,7.128,7.1301,7.1333,7.134,7.1431,7.1393,7.1448,7.1545,7.1571,7.1597,7.1752,7.172,7.177,7.1853,7.1913,7.193,7.1946,7.1999,7.2018,7.1782,7.1782,7.1782,0,7.117,7.1269,7.1257,7.1332,7.1364,7.1324,7.1408,7.1435,7.1489,7.1511,7.1474,7.1594,7.1615,7.1725,7.1763,7.1787,7.1807,7.1765,7.1929,7.1945,7.1959,7.2009,7.2029,7.1787,7.1787,7.1786,7.1786,0,7.1354,7.1422,7.1486,7.1541,7.1581,7.166,7.1658,7.1699,7.1684,7.1689,7.178,7.1804,7.1859,7.1885,7.187,7.1993,7.1971,7.1932,7.1865,7.1987,7.2033,7.2052,7.1795,7.1793,7.1792,7.179,0,0,7.1548,7.1597,7.162,7.1644,7.1685,7.1736,7.1812,7.1868,7.1902,7.1941,7.2002,7.2085,7.2049,7.2079,7.2066,7.2119,7.2237,7.2073,7.2073,7.21,7.237,7.2397,7.242,7.2217,7.222,7.2223,7.2366,0,7.1695,7.1829,7.1821,7.1946,7.2007,7.197,7.2035,7.2066,7.2073,7.2123,7.2129,7.2187,7.2137,7.2154,7.2205,7.2212,7.229,7.2202,7.227,7.2273,7.226,7.2444,7.2474,7.2607,7.2384,7.2388,7.239,0,7.1883,7.193,7.2062,7.2093,7.2118,7.2178,7.2227,7.2277,7.231,7.2311,7.2344,7.2323,7.2396,7.2329,7.2429,7.2369,7.2396,7.2404,7.2409,7.2413,7.2337,7.2451,7.265,7.2669,7.2419,7.2417,7.2414,0,7.2009,7.2105,7.2196,7.2217,7.2256,7.2298,7.2315,7.2345,7.2379,7.2421,7.2442,7.2492,7.2519,7.2557,7.2549,7.2501,7.265,7.2582,7.2649,7.265,7.2681,7.2678,7.2884,7.2703,7.2703,7.2702,7.2702,0,7.2172,7.2253,7.2252,7.2308,7.2397,7.2386,7.2473,7.2486,7.2512,7.2567,7.2537,7.2589,7.2577,7.2627,7.2621,7.2703,7.2716,7.2716,7.2713,7.2718,7.2717,7.2734,7.2723,7.2707,7.2706,7.2705,7.2704,0,7.2326,7.233,7.2425,7.2454,7.2463,7.2528,7.2551,7.2602,7.2606,7.2676,7.2691,7.2697,7.2755,7.2751,7.2817,7.2812,7.2913,7.29,7.2902,7.2898,7.2965,7.2957,7.3186,7.3215,7.3017,7.3019,7.3021,0,7.2429,7.2491,7.2527,7.2563,7.2583,7.2641,7.2675,7.2666,7.2702,7.2744,7.279,7.2845,7.2889,7.2983,7.2991,7.3041,7.3027,7.3104,7.3034,7.3036,7.3025,7.3021,7.3025,7.3117,7.3119,7.3121,7.3122,0,7.261,7.2608,7.266,7.2712,7.2754,7.2794,7.2831,7.2861,7.2855,7.2897,7.2957,7.2991,7.3058,7.3112,7.3159,7.3174,7.3147,7.3145,7.3162,7.3166,7.3164,7.3164,7.2937,7.3139,7.3137,7.3136,7.3135,7.3135,7.274,7.2792,7.2826,7.2883,7.291,7.2945,7.2994,7.3004,7.3055,7.3109,7.31,7.3167,7.3196,7.3256,7.3276,7.3326,7.3298,7.3324,7.333,7.3336,7.3343,7.3158,7.3335,7.3334,7.3334,7.3333,7.3333,0,7.2917,7.2937,7.299,7.3043,7.3088,7.306,7.3099,7.3137,7.3197,7.3228,7.3272,7.3339,7.3392,7.3405,7.3454,7.3492,7.348,7.3505,7.35,7.3504,7.3366,7.3345,7.3513,7.3513,7.3513,7.3513,7.3513,7.3513,7.3014,7.3101,7.3103,7.3201,7.3219,7.3286,7.331,7.334,7.3365,7.3442,7.3486,7.3495,7.3518,7.3569,7.3615,7.3617,7.3635,7.3665,7.3661,7.3532,7.3514,7.3497,7.3476,7.3669,7.367,7.3794,7.3796,7.3797]}]]